Time,TemperatureF,DewpointF,PressureIn,WindDirection,WindDirectionDegrees,WindSpeedMPH,WindSpeedGustMPH,Humidity,HourlyPrecipIn,Conditions,Clouds,dailyrainin,SolarRadiationWatts/m^2,SoftwareType,DateUTC
2013-01-01 00:02:00,33.0,32.0,-100.00,NE,56,1.0,3.0,98,0.00,,,0.35,0.000000,,2013-01-01 06:02:00,
2013-01-01 00:33:00,33.0,33.0,-100.00,NNE,14,0.0,3.0,99,-99.99,,,-99.99,0.000000,,2013-01-01 06:33:00,
2013-01-01 00:43:00,33.0,33.0,-100.00,NNE,14,0.0,3.0,99,-99.99,,,-99.99,0.000000,,2013-01-01 06:43:00,
2013-01-01 00:52:00,33.0,33.0,-100.00,NNE,14,0.0,3.0,99,-99.99,,,-99.99,0.000000,,2013-01-01 06:52:00,
2013-01-01 01:02:00,33.0,33.0,-100.00,NNE,14,0.0,3.0,99,-99.99,,,-99.99,0.000000,,2013-01-01 07:02:00,
2013-01-01 01:32:00,33.0,33.0,-100.00,North,2,3.0,4.0,99,0.00,,,-99.99,0.000000,,2013-01-01 07:32:00,
2013-01-01 01:42:00,33.0,33.0,-100.00,North,2,3.0,4.0,99,0.00,,,-99.99,0.000000,,2013-01-01 07:42:00,
2013-01-01 01:52:00,33.0,33.0,-100.00,North,2,3.0,4.0,99,0.00,,,-99.99,0.000000,,2013-01-01 07:52:00,
2013-01-01 02:02:00,33.0,33.0,-100.00,North,2,3.0,4.0,99,0.00,,,-99.99,0.000000,,2013-01-01 08:02:00,
2013-01-01 02:32:00,33.0,33.0,-100.00,ESE,111,0.0,3.0,99,0.00,,,-99.99,0.000000,,2013-01-01 08:32:00,
2013-01-01 02:42:00,33.0,33.0,-100.00,ESE,111,0.0,3.0,99,0.00,,,-99.99,0.000000,,2013-01-01 08:42:00,
2013-01-01 02:53:00,33.0,33.0,-100.00,ESE,111,0.0,3.0,99,0.00,,,-99.99,0.000000,,2013-01-01 08:53:00,
2013-01-01 03:02:00,33.0,33.0,-100.00,ESE,111,0.0,3.0,99,0.00,,,-99.99,0.000000,,2013-01-01 09:02:00,
2013-01-01 03:32:00,33.0,33.0,-100.00,North,356,4.0,5.0,99,0.00,,,-99.99,0.000000,,2013-01-01 09:32:00,
2013-01-01 03:42:00,33.0,33.0,-100.00,North,356,4.0,5.0,99,0.00,,,-99.99,0.000000,,2013-01-01 09:42:00,
2013-01-01 03:52:00,33.0,33.0,-100.00,North,356,4.0,5.0,99,0.00,,,-99.99,0.000000,,2013-01-01 09:52:00,
2013-01-01 04:02:00,33.0,33.0,-100.00,North,356,4.0,5.0,99,0.00,,,-99.99,0.000000,,2013-01-01 10:02:00,
2013-01-01 04:33:00,33.0,33.0,-100.00,NNE,21,4.0,9.0,99,0.00,,,-99.99,0.000000,,2013-01-01 10:33:00,
2013-01-01 04:43:00,33.0,33.0,-100.00,NNE,21,4.0,9.0,99,0.00,,,-99.99,0.000000,,2013-01-01 10:43:00,
2013-01-01 04:53:00,33.0,33.0,-100.00,NNE,21,4.0,9.0,99,0.00,,,-99.99,0.000000,,2013-01-01 10:53:00,
2013-01-01 05:02:00,33.0,33.0,-100.00,NNE,21,4.0,9.0,99,0.00,,,-99.99,0.000000,,2013-01-01 11:02:00,
2013-01-01 05:33:00,33.0,33.0,-100.00,NNE,27,4.0,9.0,99,0.01,,,-99.99,0.000000,,2013-01-01 11:33:00,
2013-01-01 05:43:00,33.0,33.0,-100.00,NNE,27,4.0,9.0,99,0.01,,,-99.99,0.000000,,2013-01-01 11:43:00,
2013-01-01 05:53:00,33.0,33.0,-100.00,NNE,27,4.0,9.0,99,0.01,,,-99.99,0.000000,,2013-01-01 11:53:00,
2013-01-01 06:02:00,33.0,33.0,-100.00,NNE,27,4.0,9.0,99,0.01,,,-99.99,0.000000,,2013-01-01 12:02:00,
2013-01-01 06:33:00,33.0,33.0,-100.00,NNE,32,5.0,11.0,99,0.00,,,-99.99,0.000000,,2013-01-01 12:33:00,
2013-01-01 06:43:00,33.0,33.0,-100.00,NNE,32,5.0,11.0,99,0.00,,,-99.99,0.000000,,2013-01-01 12:43:00,
2013-01-01 06:53:00,33.0,33.0,-100.00,NNE,32,5.0,11.0,99,0.00,,,-99.99,0.000000,,2013-01-01 12:53:00,
2013-01-01 07:02:00,33.0,33.0,-100.00,NNE,32,5.0,11.0,99,0.00,,,-99.99,0.000000,,2013-01-01 13:02:00,
2013-01-01 07:33:00,32.0,32.0,-100.00,NNE,30,4.0,7.0,99,0.00,,,-99.99,0.000000,,2013-01-01 13:33:00,
2013-01-01 07:43:00,32.0,32.0,-100.00,NNE,30,4.0,7.0,99,0.00,,,-99.99,0.000000,,2013-01-01 13:43:00,
2013-01-01 07:53:00,32.0,32.0,-100.00,NNE,30,4.0,7.0,99,0.00,,,-99.99,0.000000,,2013-01-01 13:53:00,
2013-01-01 08:02:00,32.0,32.0,-100.00,NNE,30,4.0,7.0,99,0.00,,,-99.99,0.000000,,2013-01-01 14:02:00,
2013-01-01 08:33:00,33.0,32.0,-100.00,NNE,23,4.0,9.0,97,0.00,,,-99.99,10.000000,,2013-01-01 14:33:00,
2013-01-01 08:43:00,33.0,32.0,-100.00,NNE,23,4.0,9.0,97,0.00,,,-99.99,10.000000,,2013-01-01 14:43:00,
2013-01-01 08:53:00,33.0,32.0,-100.00,NNE,23,4.0,9.0,97,0.00,,,-99.99,10.000000,,2013-01-01 14:53:00,
2013-01-01 09:03:00,33.0,32.0,-100.00,NNE,23,4.0,9.0,97,0.00,,,-99.99,10.000000,,2013-01-01 15:03:00,
2013-01-01 09:33:00,33.0,32.0,-100.00,NNE,16,5.0,11.0,96,0.00,,,-99.99,41.000000,,2013-01-01 15:33:00,
2013-01-01 09:43:00,33.0,32.0,-100.00,NNE,16,5.0,11.0,96,0.00,,,-99.99,41.000000,,2013-01-01 15:43:00,
2013-01-01 09:53:00,33.0,32.0,-100.00,NNE,16,5.0,11.0,96,0.00,,,-99.99,41.000000,,2013-01-01 15:53:00,
2013-01-01 10:02:00,33.0,32.0,-100.00,NNE,16,5.0,11.0,96,0.00,,,-99.99,41.000000,,2013-01-01 16:02:00,
2013-01-01 10:33:00,33.0,30.0,-100.00,North,9,6.0,11.0,90,0.00,,,-99.99,84.000000,,2013-01-01 16:33:00,
2013-01-01 10:43:00,33.0,30.0,-100.00,North,9,6.0,11.0,90,0.00,,,-99.99,84.000000,,2013-01-01 16:43:00,
2013-01-01 10:53:00,33.0,30.0,-100.00,North,9,6.0,11.0,90,0.00,,,-99.99,84.000000,,2013-01-01 16:53:00,
2013-01-01 11:02:00,33.0,30.0,-100.00,North,9,6.0,11.0,90,0.00,,,-99.99,84.000000,,2013-01-01 17:02:00,
2013-01-01 11:33:00,33.0,30.0,-100.00,NNW,346,8.0,12.0,89,0.00,,,-99.99,152.000000,,2013-01-01 17:33:00,
2013-01-01 11:43:00,33.0,30.0,-100.00,NNW,346,8.0,12.0,89,0.00,,,-99.99,152.000000,,2013-01-01 17:43:00,
2013-01-01 11:53:00,33.0,30.0,-100.00,NNW,346,8.0,12.0,89,0.00,,,-99.99,152.000000,,2013-01-01 17:53:00,
2013-01-01 12:03:00,33.0,30.0,-100.00,NNW,346,8.0,12.0,89,0.00,,,-99.99,152.000000,,2013-01-01 18:03:00,
2013-01-01 12:33:00,31.0,28.0,-100.00,NNW,334,8.0,13.0,90,0.00,,,-99.99,68.000000,,2013-01-01 18:33:00,
2013-01-01 12:43:00,31.0,28.0,-100.00,NNW,334,8.0,13.0,90,0.00,,,-99.99,68.000000,,2013-01-01 18:43:00,
2013-01-01 12:53:00,31.0,28.0,-100.00,NNW,334,8.0,13.0,90,0.00,,,-99.99,68.000000,,2013-01-01 18:53:00,
2013-01-01 13:02:00,31.0,28.0,-100.00,NNW,334,8.0,13.0,90,0.00,,,-99.99,68.000000,,2013-01-01 19:02:00,
2013-01-01 13:33:00,30.0,27.0,-100.00,North,350,8.0,18.0,89,0.00,,,-99.99,72.000000,,2013-01-01 19:33:00,
2013-01-01 13:43:00,30.0,27.0,-100.00,North,350,8.0,18.0,89,0.00,,,-99.99,72.000000,,2013-01-01 19:43:00,
2013-01-01 13:53:00,30.0,27.0,-100.00,North,350,8.0,18.0,89,0.00,,,-99.99,72.000000,,2013-01-01 19:53:00,
2013-01-01 14:02:00,30.0,27.0,-100.00,North,350,8.0,18.0,89,0.00,,,-99.99,72.000000,,2013-01-01 20:02:00,
2013-01-01 14:32:00,29.0,24.0,-100.00,North,359,8.0,16.0,81,0.00,,,-99.99,81.000000,,2013-01-01 20:32:00,
2013-01-01 14:42:00,29.0,24.0,-100.00,North,359,8.0,16.0,81,0.00,,,-99.99,81.000000,,2013-01-01 20:42:00,
2013-01-01 14:53:00,29.0,24.0,-100.00,North,359,8.0,16.0,81,0.00,,,-99.99,81.000000,,2013-01-01 20:53:00,
2013-01-01 15:03:00,29.0,24.0,-100.00,North,359,8.0,16.0,81,0.00,,,-99.99,81.000000,,2013-01-01 21:03:00,
2013-01-01 15:33:00,29.0,23.0,-100.00,North,353,8.0,14.0,79,0.00,,,-99.99,82.000000,,2013-01-01 21:33:00,
2013-01-01 15:42:00,29.0,23.0,-100.00,North,353,8.0,14.0,79,0.00,,,-99.99,82.000000,,2013-01-01 21:42:00,
2013-01-01 15:53:00,29.0,23.0,-100.00,North,353,8.0,14.0,79,0.00,,,-99.99,82.000000,,2013-01-01 21:53:00,
2013-01-01 16:02:00,29.0,23.0,-100.00,North,353,8.0,14.0,79,0.00,,,-99.99,82.000000,,2013-01-01 22:02:00,
2013-01-01 16:33:00,27.0,21.0,-100.00,North,351,10.0,16.0,79,0.00,,,-99.99,45.000000,,2013-01-01 22:33:00,
2013-01-01 16:43:00,27.0,21.0,-100.00,North,351,10.0,16.0,79,0.00,,,-99.99,45.000000,,2013-01-01 22:43:00,
2013-01-01 16:52:00,27.0,21.0,-100.00,North,351,10.0,16.0,79,0.00,,,-99.99,45.000000,,2013-01-01 22:52:00,
2013-01-01 17:02:00,27.0,21.0,-100.00,North,351,10.0,16.0,79,0.00,,,-99.99,45.000000,,2013-01-01 23:02:00,
2013-01-01 17:33:00,26.0,21.0,-100.00,North,355,7.0,18.0,80,0.00,,,-99.99,7.000000,,2013-01-01 23:33:00,
2013-01-01 17:42:00,26.0,21.0,-100.00,North,355,7.0,18.0,80,0.00,,,-99.99,7.000000,,2013-01-01 23:42:00,
2013-01-01 17:53:00,26.0,21.0,-100.00,North,355,7.0,18.0,80,0.00,,,-99.99,7.000000,,2013-01-01 23:53:00,
2013-01-01 18:02:00,26.0,21.0,-100.00,North,355,7.0,18.0,80,0.00,,,-99.99,7.000000,,2013-01-02 00:02:00,
2013-01-01 18:32:00,26.0,21.0,-100.00,NNW,343,9.0,13.0,81,0.00,,,-99.99,0.000000,,2013-01-02 00:32:00,
2013-01-01 18:43:00,26.0,21.0,-100.00,NNW,343,9.0,13.0,81,0.00,,,-99.99,0.000000,,2013-01-02 00:43:00,
2013-01-01 18:53:00,26.0,21.0,-100.00,NNW,343,9.0,13.0,81,0.00,,,-99.99,0.000000,,2013-01-02 00:53:00,
2013-01-01 19:02:00,26.0,21.0,-100.00,NNW,343,9.0,13.0,81,0.00,,,-99.99,0.000000,,2013-01-02 01:02:00,
2013-01-01 19:33:00,25.0,20.0,-100.00,NNW,346,8.0,14.0,80,0.00,,,-99.99,0.000000,,2013-01-02 01:33:00,
2013-01-01 19:42:00,25.0,20.0,-100.00,NNW,346,8.0,14.0,80,0.00,,,-99.99,0.000000,,2013-01-02 01:42:00,
2013-01-01 19:52:00,25.0,20.0,-100.00,NNW,346,8.0,14.0,80,0.00,,,-99.99,0.000000,,2013-01-02 01:52:00,
2013-01-01 20:02:00,25.0,20.0,-100.00,NNW,346,8.0,14.0,80,0.00,,,-99.99,0.000000,,2013-01-02 02:02:00,
2013-01-01 20:32:00,24.0,17.0,-100.00,North,349,9.0,15.0,75,0.00,,,-99.99,0.000000,,2013-01-02 02:32:00,
2013-01-01 20:43:00,24.0,17.0,-100.00,North,349,9.0,15.0,75,0.00,,,-99.99,0.000000,,2013-01-02 02:43:00,
2013-01-01 20:53:00,24.0,17.0,-100.00,North,349,9.0,15.0,75,0.00,,,-99.99,0.000000,,2013-01-02 02:53:00,
2013-01-01 21:02:00,24.0,17.0,-100.00,North,349,9.0,15.0,75,0.00,,,-99.99,0.000000,,2013-01-02 03:02:00,
2013-01-01 21:32:00,23.0,17.0,-100.00,North,6,4.0,11.0,78,0.00,,,-99.99,0.000000,,2013-01-02 03:32:00,
2013-01-01 21:42:00,23.0,17.0,-100.00,North,6,4.0,11.0,78,0.00,,,-99.99,0.000000,,2013-01-02 03:42:00,
2013-01-01 21:53:00,23.0,17.0,-100.00,North,6,4.0,11.0,78,0.00,,,-99.99,0.000000,,2013-01-02 03:53:00,
2013-01-01 22:02:00,23.0,17.0,-100.00,North,6,4.0,11.0,78,0.00,,,-99.99,0.000000,,2013-01-02 04:02:00,
2013-01-01 22:32:00,22.0,17.0,-100.00,North,0,2.0,7.0,82,0.00,,,-99.99,0.000000,,2013-01-02 04:32:00,
2013-01-01 22:42:00,22.0,17.0,-100.00,North,0,2.0,7.0,82,0.00,,,-99.99,0.000000,,2013-01-02 04:42:00,
2013-01-01 22:52:00,22.0,17.0,-100.00,North,0,2.0,7.0,82,0.00,,,-99.99,0.000000,,2013-01-02 04:52:00,
2013-01-01 23:03:00,22.0,17.0,-100.00,North,0,2.0,7.0,82,0.00,,,-99.99,0.000000,,2013-01-02 05:03:00,
2013-01-01 23:33:00,22.0,17.0,-100.00,North,9,4.0,7.0,81,0.00,,,-99.99,0.000000,,2013-01-02 05:33:00,
2013-01-01 23:43:00,22.0,17.0,-100.00,North,9,4.0,7.0,81,0.00,,,-99.99,0.000000,,2013-01-02 05:43:00,
2013-01-01 23:53:00,22.0,17.0,-100.00,North,9,4.0,7.0,81,0.00,,,-99.99,0.000000,,2013-01-02 05:53:00,